| time (UTC) | temp C | wind direction | speed KPH | gust KPH | rain 1hr cm | rain 24hr cm | rain mn cm | humidity % | barometer mb |
| 20260504234528 | 25 | 194 | 20.9 | 35.4 | 0.00 | 0.00 | 0.00 | 48 | 1007.0 |
| 20260504233028 | 25 | 207 | 22.5 | 41.8 | 0.00 | 0.00 | 0.00 | 48 | 1007.2 |
| 20260504231533 | 25 | 190 | 24.1 | 40.2 | 0.00 | 0.00 | 0.00 | 48 | 1007.1 |
| 20260504230031 | 26 | 219 | 22.5 | 35.4 | 0.00 | 0.00 | 0.00 | 48 | 1007.2 |
| 20260504224532 | 26 | 176 | 22.5 | 40.2 | 0.00 | 0.00 | 0.00 | 47 | 1007.3 |
| 20260504223031 | 26 | 188 | 25.7 | 48.3 | 0.00 | 0.00 | 0.00 | 47 | 1007.3 |
| 20260504221528 | 26 | 215 | 22.5 | 45.1 | 0.00 | 0.00 | 0.00 | 47 | 1007.6 |
| 20260504220028 | 26 | 186 | 19.3 | 38.6 | 0.00 | 0.00 | 0.00 | 47 | 1007.5 |
| 20260504214539 | 26 | 194 | 22.5 | 40.2 | 0.00 | 0.00 | 0.00 | 47 | 1007.6 |
| 20260504213030 | 26 | 227 | 27.4 | 45.1 | 0.00 | 0.00 | 0.00 | 47 | 1007.7 |
| 20260504211530 | 26 | 200 | 22.5 | 41.8 | 0.00 | 0.00 | 0.00 | 47 | 1007.8 |
| 20260504210030 | 26 | 202 | 22.5 | 41.8 | 0.00 | 0.00 | 0.00 | 47 | 1008.1 |
| 20260504204529 | 26 | 207 | 24.1 | 45.1 | 0.00 | 0.00 | 0.00 | 47 | 1008.3 |
| 20260504203030 | 26 | 177 | 22.5 | 40.2 | 0.00 | 0.00 | 0.00 | 47 | 1008.6 |
| 20260504201529 | 26 | 191 | 24.1 | 46.7 | 0.00 | 0.00 | 0.00 | 47 | 1008.8 |
| 20260504200033 | 26 | 216 | 24.1 | 46.7 | 0.00 | 0.00 | 0.00 | 47 | 1008.9 |
| 20260504194528 | 26 | 229 | 29.0 | 46.7 | 0.00 | 0.00 | 0.00 | 47 | 1009.1 |
| 20260504193030 | 26 | 208 | 25.7 | 40.2 | 0.00 | 0.00 | 0.00 | 47 | 1009.4 |
| 20260504191528 | 26 | 225 | 24.1 | 38.6 | 0.00 | 0.00 | 0.00 | 48 | 1009.3 |
| 20260504190027 | 26 | 161 | 27.4 | 45.1 | 0.00 | 0.00 | 0.00 | 48 | 1009.4 |
| 20260504184535 | 26 | 195 | 24.1 | 56.3 | 0.00 | 0.00 | 0.00 | 49 | 1009.4 |
| 20260504183035 | 26 | 197 | 33.8 | 48.3 | 0.00 | 0.00 | 0.00 | 49 | 1009.7 |
| 20260504181528 | 25 | 196 | 27.4 | 49.9 | 0.00 | 0.00 | 0.00 | 50 | 1009.7 |
| 20260504180028 | 25 | 228 | 29.0 | 49.9 | 0.00 | 0.00 | 0.00 | 50 | 1010.1 |
| 20260504174527 | 25 | 206 | 20.9 | 38.6 | 0.00 | 0.00 | 0.00 | 52 | 1010.1 |
| 20260504173030 | 25 | 178 | 27.4 | 41.8 | 0.00 | 0.00 | 0.00 | 53 | 1010.3 |
| 20260504171528 | 25 | 229 | 29.0 | 46.7 | 0.00 | 0.00 | 0.00 | 53 | 1010.5 |
| 20260504081529 | 17 | 182 | 11.3 | 20.9 | 0.00 | 0.00 | 0.00 | 69 | 1011.1 |
| 20260504044528 | 18 | 160 | 14.5 | 30.6 | 0.00 | 0.00 | 0.00 | 64 | 1013.0 |
| 20260504043030 | 18 | 178 | 14.5 | 25.7 | 0.00 | 0.00 | 0.00 | 64 | 1013.0 |
| 20260504041534 | 18 | 184 | 14.5 | 22.5 | 0.00 | 0.00 | 0.00 | 63 | 1013.1 |
| 20260504040030 | 18 | 175 | 12.9 | 22.5 | 0.00 | 0.00 | 0.00 | 63 | 1013.2 |
| 20260504034539 | 18 | 171 | 14.5 | 20.9 | 0.00 | 0.00 | 0.00 | 62 | 1013.2 |
| 20260504033030 | 18 | 155 | 14.5 | 22.5 | 0.00 | 0.00 | 0.00 | 62 | 1013.2 |
| 20260504031528 | 18 | 169 | 11.3 | 19.3 | 0.00 | 0.00 | 0.00 | 61 | 1013.3 |
| 20260504030036 | 18 | 144 | 11.3 | 19.3 | 0.00 | 0.00 | 0.00 | 60 | 1013.4 |
| 20260504024530 | 18 | 150 | 9.7 | 17.7 | 0.00 | 0.00 | 0.00 | 59 | 1013.4 |
| 20260504023027 | 18 | 161 | 11.3 | 19.3 | 0.00 | 0.00 | 0.00 | 58 | 1013.4 |
| 20260504021537 | 19 | 171 | 16.1 | 25.7 | 0.00 | 0.00 | 0.00 | 58 | 1013.3 |
| 20260504020036 | 19 | 182 | 12.9 | 19.3 | 0.00 | 0.00 | 0.00 | 56 | 1013.2 |
| 20260504014527 | 20 | 173 | 12.9 | 22.5 | 0.00 | 0.00 | 0.00 | 55 | 1013.1 |
| 20260504013035 | 20 | 167 | 12.9 | 19.3 | 0.00 | 0.00 | 0.00 | 54 | 1013.1 |
| 20260504011530 | 21 | 164 | 12.9 | 24.1 | 0.00 | 0.00 | 0.00 | 53 | 1013.0 |
| 20260504010027 | 21 | 167 | 17.7 | 25.7 | 0.00 | 0.00 | 0.00 | 53 | 1012.9 |
| 20260504004539 | 21 | 189 | 16.1 | 24.1 | 0.00 | 0.00 | 0.00 | 52 | 1013.0 |
| 20260504003028 | 22 | 171 | 14.5 | 27.4 | 0.00 | 0.00 | 0.00 | 51 | 1013.0 |
| 20260504001535 | 22 | 190 | 17.7 | 27.4 | 0.00 | 0.00 | 0.00 | 50 | 1013.3 |
| 20260504000029 | 22 | 194 | 19.3 | 29.0 | 0.00 | 0.00 | 0.00 | 50 | 1013.3 |